Regional Weather Roundup
Issued by NWS

Home | Current Version | Previous Version | Graphics & Text | Print | Product List | Glossary On
Versions: 1 2 3 4 5 6 7 8 9 10 11 12 13 14 15 16 17 18 19 20 21 22 23 24 25 26 27 28 29 30 31 32 33 34 35 36 37 38 39 40 41 42 43 44 45 46 47 48 49 50
000
ASUS45 KABQ 301601
RWRNM
WEATHER ROUNDUP FOR NEW MEXICO
NATIONAL WEATHER SERVICE ALBUQUERQUE NM
900 AM MST FRI JAN 30 2015

NOTE: "FAIR" MEANS FEW OR NO CLOUDS BELOW 12,000 FEET AGL WITH NO
       SIGNIFICANT WEATHER OR OBSTRUCTIONS TO VISION.

      THIS PRODUCT IS RELEASED AS TWO VERSIONS.  ONE VERSION NEAR
      THE TOP OF THE HOUR CONTAINING PRELIMINARY DATA FROM ALBUQUERQUE
      AND OTHER STATIONS.  A FINAL VERSION WITH ADDITIONAL DATA IS
      ISSUED ABOUT 10 MINUTES AFTER THE HOUR.

NMZ501-503-504-510>518-301700-
NORTHWEST PLATEAU/NORTHCENTRAL MOUNTAINS

CITY           SKY/WX    TMP DP  RH WIND       PRES   REMARKS
FARMINGTON     SNOW      32  31  96 E9        30.19F VSB 1/2 WCI  24
SANTA FE       LGT SNOW  29  27  92 S5        30.29S VSB 3/4 WCI  24
TAOS           CLOUDY    27  23  86 CALM      30.28F VSB 3/4

$$
NMZ402-403-502-505>509-301700-
WESTCENTRAL MOUNTAINS/SOUTHWEST MOUNTAINS

CITY           SKY/WX    TMP DP  RH WIND       PRES   REMARKS
GALLUP         LGT SNOW  32  30  92 N5        30.14F VSB 1   WCI  27
SILVER CITY    LGT RAIN  39  37  93 E17G23    30.18F WCI  30

$$
NMZ407-409-411-412-301700-
SOUTHERN DESERTS

CITY           SKY/WX    TMP DP  RH WIND       PRES   REMARKS
DEMING         CLOUDY    40  39  97 E17       30.19F WCI  31
HOLLOMAN AFB   CLOUDY    40  40 100 SW6       30.24S
ALAMOGORDO     CLOUDY    39  39 100 NW3       30.25F
T OR C         LGT RAIN  37  36  96 N12       30.23S WCI  29

$$
NMZ519>523-301700-
CENTRAL VALLEYS/CENTRAL HIGHLANDS

CITY           SKY/WX    TMP DP  RH WIND       PRES   REMARKS
ALBUQUERQUE    LGT SNOW  34  30  85 E20       30.27S FOG     WCI  23
DOUBLE EAGLE   LGT SNOW  30  28  93 N5        30.27F VSB 1   WCI  25
MORIARTY ARPT  LGT SNOW  31  28  88 SE8       30.31F WCI  23
CLINES CORNERS LGT SNOW  27  25  92 E15       30.26F FOG     WCI  15
BELEN          LGT SNOW  32  32 100 NW5       30.27S WCI  27
SOCORRO        NOT AVBL

$$
NMZ524>526-539-540-301700-
SOUTHCENTRAL MOUNTAINS

CITY           SKY/WX    TMP DP  RH WIND       PRES   REMARKS
RUIDOSO        NOT AVBL

$$
NMZ527>531-301700-
NORTHEAST HIGHLANDS/NORTHEAST PLAINS

CITY           SKY/WX    TMP DP  RH WIND       PRES   REMARKS
LAS VEGAS      LGT SNOW  27  24  89 S6        30.32S FOG     WCI  20
RATON          SNOW      29  28  96 S8        30.31S VSB 1/4 WCI  21
CLAYTON        CLOUDY    37  28  70 S14       30.34S WCI  28

$$
NMZ532>537-301700-
EASTCENTRAL PLAINS

CITY           SKY/WX    TMP DP  RH WIND       PRES   REMARKS
TUCUMCARI      CLOUDY    39  29  67 SW7       30.37S WCI  34
CANNON AFB     CLOUDY    38  27  66 SE10      30.39R WCI  30
CLOVIS AIRPORT CLOUDY    37  27  65 SE12      30.40R WCI  30

$$
NMZ028-029-538-301700-
SOUTHEAST PLAINS

CITY           SKY/WX    TMP DP  RH WIND       PRES   REMARKS
ROSWELL        CLOUDY    40  35  83 SW3       30.39S
ARTESIA        DRIZZLE   39  36  87 SE5       30.40S
CARLSBAD       LGT RAIN  41  35  79 E7        30.39S
HOBBS          CLOUDY    37  27  65 E15       30.40S WCI  28


$$



USA.gov is the U.S. government's official web portal to all federal, state and local government web resources and services.